Tomahawk, WI

8:05 AM CDT on August 29, 2016 (GMT -0500)
Tomahawk

Weather History for KTKV - January, 2014

Change the Weather History Date:

Friday, January 24, 2014

  Actual Average (KRHI) Record (KRHI)
Temperature  
Mean Temperature 5 °F 12 °F  
Max Temperature 23 °F 21 °F 49 °F (1981)
Min Temperature -13 °F 3 °F -38 °F (1935)
Degree Days  
Heating Degree Days 60 53  
Month to date heating degree days 1267  
Since 1 July heating degree days 4893  
Cooling Degree Days 0 0  
Month to date cooling degree days 0  
Year to date cooling degree days 0  
Moisture  
Dew Point 5 °F    
Average Humidity 79    
Maximum Humidity 91    
Minimum Humidity 62    
Precipitation  
Precipitation 0.04 in 0.04 in 0.69 in (1997)
Month to date precipitation 0.87  
Year to date precipitation 0.87  
Snow  
Snow 0.00 in - 7.00 in (1997)
Month to date snowfall  
Since 1 July snowfall  
Snow Depth -    
Sea Level Pressure  
Sea Level Pressure 29.57 in    
Wind  
Wind Speed 4 mph (SW)    
Max Wind Speed 16 mph    
Max Gust Speed 25 mph    
Visibility 6 miles    
Events Snow    
T = Trace of Precipitation, MM = Missing Value Source: NWS Daily Summary

Daily Weather History Graph

Daily Weather History Graph

Search for Another Location

Airport or City:

Trip Planner

Search our weather history database for the weather conditions in past years. The results will help you decide how hot, cold, wet, or windy it might be!

Date:

Astronomy

Jan. 24, 2014 Rise Set
Actual Time 7:28 AM CST 4:54 PM CST
Civil Twilight 6:56 AM CST 5:26 PM CST
Nautical Twilight 6:20 AM CST 6:02 PM CST
Astronomical Twilight 5:45 AM CST 6:38 PM CST
Moon 12:51 AM CST (1/24) 11:16 AM CST (1/24)
Length of Visible Light 10h 30m
Length of Day
9h 26m
Last Quarter, 44% of the Moon is Illuminated
Jan 24
Last Quarter
Jan 30
New
Feb 6
First Quarter
Feb 14
Full
Feb 22
Last Quarter

Hourly Weather History & Observations

Time (CST) Temp. Windchill Dew Point Humidity Pressure Visibility Wind Dir Wind Speed Gust Speed Precip Events Conditions
12:15 AM -13.2 °F - -18.6 °F 77% 30.12 in 10.0 mi Calm Calm - N/A   Scattered Clouds
12:35 AM -13.4 °F - -18.8 °F 77% 30.11 in 10.0 mi Calm Calm - N/A   Clear
12:55 AM -13.0 °F - -18.0 °F 78% 30.09 in 10.0 mi Calm Calm - N/A   Scattered Clouds
1:15 AM -12.5 °F - -17.5 °F 78% 30.07 in 10.0 mi Calm Calm - N/A   Scattered Clouds
1:35 AM -11.7 °F - -16.6 °F 79% 30.05 in 10.0 mi Calm Calm - N/A   Mostly Cloudy
1:55 AM -10.7 °F - -15.5 °F 79% 30.04 in 10.0 mi Calm Calm - N/A   Overcast
2:15 AM -9.0 °F -20.4 °F -14.3 °F 78% 30.00 in 10.0 mi South 4.6 mph - N/A   Overcast
2:35 AM -8.3 °F - -14.1 °F 76% 29.98 in 10.0 mi Calm Calm - N/A   Overcast
2:55 AM -6.5 °F -19.3 °F -13.2 °F 73% 29.96 in 10.0 mi South 5.8 mph - N/A   Overcast
3:15 AM -6.0 °F -14.7 °F -12.8 °F 72% 29.93 in 10.0 mi South 3.5 mph - N/A   Overcast
3:35 AM -5.8 °F - -13.0 °F 71% 29.89 in 10.0 mi Calm Calm - N/A   Overcast
3:55 AM -4.5 °F -16.9 °F -11.4 °F 72% 29.87 in 10.0 mi South 5.8 mph - N/A   Overcast
4:15 AM -3.1 °F -16.7 °F -10.5 °F 71% 29.85 in 10.0 mi South 6.9 mph - N/A   Overcast
4:35 AM -1.8 °F -12.0 °F -9.8 °F 69% 29.82 in 10.0 mi South 4.6 mph - N/A   Overcast
4:55 AM 0.3 °F -12.6 °F -8.7 °F 66% 29.80 in 10.0 mi SSW 6.9 mph - N/A   Overcast
5:15 AM 1.8 °F -12.0 °F -8.0 °F 64% 29.78 in 10.0 mi SSW 8.1 mph 18.4 mph N/A   Overcast
5:35 AM 2.7 °F -9.7 °F -7.8 °F 62% 29.77 in 10.0 mi SSW 6.9 mph 17.3 mph N/A   Overcast
5:55 AM 3.0 °F -9.3 °F -6.7 °F 64% 29.75 in 7.0 mi SSW 6.9 mph 18.4 mph N/A   Overcast
6:15 AM 3.2 °F -10.3 °F -6.7 °F 63% 29.73 in 10.0 mi SSW 8.1 mph - N/A   Overcast
6:35 AM 3.6 °F -10.9 °F -6.2 °F 64% 29.74 in 5.0 mi SW 9.2 mph - N/A Snow Light Snow
6:55 AM 2.8 °F -10.7 °F -3.1 °F 76% 29.73 in 1.0 mi SW 8.1 mph - N/A Snow Snow
7:15 AM 2.7 °F -6.8 °F -2.4 °F 79% 29.71 in 1.5 mi SSW 4.6 mph - N/A Snow Light Snow
7:35 AM 2.8 °F -6.6 °F -2.2 °F 79% 29.70 in 1.8 mi SW 4.6 mph - N/A Snow Light Snow
7:55 AM 3.2 °F -4.2 °F -2.2 °F 78% 29.69 in 1.8 mi SW 3.5 mph - N/A Snow Light Snow
8:15 AM 3.7 °F -3.6 °F -1.3 °F 80% 29.67 in 2.0 mi SSW 3.5 mph - N/A Snow Light Snow
8:35 AM 4.1 °F -8.0 °F -0.8 °F 80% 29.66 in 1.5 mi SW 6.9 mph - N/A Snow Light Snow
8:55 AM 5.0 °F - -0.0 °F 80% 29.64 in 2.0 mi Calm Calm - N/A Snow Light Snow
9:15 AM 5.9 °F -3.0 °F 1.0 °F 80% 29.62 in 2.0 mi WSW 4.6 mph - N/A Snow Light Snow
9:35 AM 7.0 °F -3.3 °F 2.1 °F 80% 29.61 in 2.0 mi SW 5.8 mph - N/A Snow Light Snow
9:55 AM 8.2 °F -3.0 °F 3.2 °F 80% 29.60 in 3.0 mi SW 6.9 mph - N/A Snow Light Snow
10:15 AM 9.3 °F -0.5 °F 4.1 °F 79% 29.59 in 3.0 mi SW 5.8 mph - N/A Snow Light Snow
10:35 AM 10.2 °F -1.7 °F 4.8 °F 79% 29.58 in 4.0 mi SW 8.1 mph - N/A Snow Light Snow
10:55 AM 11.3 °F 3.3 °F 5.5 °F 78% 29.57 in 5.0 mi SW 4.6 mph - N/A Snow Light Snow
11:15 AM 12.2 °F 0.7 °F 5.9 °F 76% 29.55 in 4.0 mi SW 8.1 mph - N/A Snow Light Snow
11:35 AM 12.7 °F 3.6 °F 6.4 °F 76% 29.53 in 7.0 mi SW 5.8 mph - N/A Snow Light Snow
11:55 AM 13.1 °F 4.0 °F 6.8 °F 76% 29.52 in 7.0 mi SW 5.8 mph - N/A Snow Light Snow
12:15 PM 13.8 °F 8.0 °F 7.7 °F 77% 29.49 in 3.0 mi SSW 3.5 mph - N/A Snow Light Snow
12:35 PM 14.0 °F 6.5 °F 8.6 °F 79% 29.49 in 3.0 mi SW 4.6 mph - N/A Snow Light Snow
12:55 PM 14.5 °F - 9.9 °F 82% 29.47 in 3.0 mi Calm Calm - N/A Snow Light Snow
1:15 PM 15.1 °F 7.7 °F 10.8 °F 83% 29.46 in 4.0 mi SW 4.6 mph - N/A Snow Light Snow
1:35 PM 15.6 °F 7.0 °F 10.8 °F 81% 29.45 in 5.0 mi WSW 5.8 mph - N/A Snow Light Snow
1:55 PM 15.8 °F 8.6 °F 10.9 °F 81% 29.44 in 7.0 mi SW 4.6 mph - N/A   Overcast
2:15 PM 15.8 °F 7.2 °F 11.1 °F 82% 29.43 in 5.0 mi SW 5.8 mph - N/A   Haze
2:35 PM 16.3 °F 9.2 °F 11.8 °F 82% 29.42 in 2.5 mi WSW 4.6 mph - N/A Snow Light Snow
2:55 PM 16.7 °F - 12.7 °F 84% 29.41 in 1.8 mi Calm Calm - N/A Snow Light Snow
3:15 PM 17.1 °F - 12.9 °F 84% 29.39 in 5.0 mi Calm Calm - N/A Snow Light Snow
3:35 PM 17.4 °F 12.1 °F 13.8 °F 86% 29.39 in 1.5 mi SW 3.5 mph - 0.01 in Snow Light Snow
3:55 PM 17.6 °F 12.3 °F 14.0 °F 86% 29.38 in 1.0 mi SSW 3.5 mph - 0.01 in Snow Light Snow
4:15 PM 17.8 °F - 14.7 °F 88% 29.37 in 1.0 mi Calm Calm - N/A Snow Light Snow
4:35 PM 18.0 °F - 14.9 °F 88% 29.36 in 1.2 mi Calm Calm - 0.01 in Snow Light Snow
4:55 PM 18.3 °F - 15.4 °F 89% 29.36 in 2.5 mi Calm Calm - 0.01 in Snow Light Snow
5:15 PM 18.5 °F - 15.8 °F 89% 29.35 in 2.0 mi Calm Calm - N/A Snow Light Snow
5:35 PM 19.0 °F - 16.3 °F 89% 29.35 in 1.8 mi Calm Calm - N/A Snow Light Snow
5:55 PM 19.0 °F - 16.3 °F 89% 29.34 in 5.0 mi Calm Calm - N/A Snow Light Snow
6:15 PM 19.4 °F - 16.5 °F 89% 29.34 in 7.0 mi Calm Calm - N/A Snow Light Snow
6:35 PM 19.6 °F 14.5 °F 16.7 °F 89% 29.33 in 4.0 mi SW 3.5 mph - N/A Snow Light Snow
6:55 PM 20.1 °F - 17.4 °F 89% 29.33 in 1.8 mi Calm Calm - N/A Snow Light Snow
7:15 PM 20.3 °F - 18.0 °F 91% 29.31 in 2.5 mi Calm Calm - 0.02 in Snow Light Snow
7:35 PM 21.4 °F 16.6 °F 18.9 °F 90% 29.30 in 7.0 mi WSW 3.5 mph - 0.02 in Snow Light Snow
7:55 PM 22.5 °F 11.7 °F 19.4 °F 88% 29.30 in 7.0 mi West 10.4 mph - 0.02 in Snow Light Snow
8:15 PM 22.8 °F 11.5 °F 19.8 °F 88% 29.30 in 7.0 mi West 11.5 mph 17.3 mph N/A Snow Light Snow
8:35 PM 23.0 °F 13.1 °F 19.6 °F 87% 29.29 in 4.0 mi West 9.2 mph - N/A Snow Light Snow
8:55 PM 23.0 °F 12.4 °F 19.9 °F 88% 29.28 in 5.0 mi West 10.4 mph 17.3 mph N/A Snow Light Snow
9:15 PM 23.0 °F 13.1 °F 19.9 °F 88% 29.27 in 10.0 mi West 9.2 mph - N/A Snow Light Snow
9:35 PM 23.4 °F 13.5 °F 20.1 °F 87% 29.27 in 7.0 mi West 9.2 mph - N/A Snow Light Snow
9:55 PM 23.4 °F 12.2 °F 19.4 °F 85% 29.27 in 10.0 mi West 11.5 mph 18.4 mph N/A   Mostly Cloudy
10:15 PM 23.2 °F 12.6 °F 18.5 °F 82% 29.27 in 10.0 mi West 10.4 mph 17.3 mph N/A   Scattered Clouds
10:35 PM 23.9 °F 13.5 °F 18.5 °F 80% 29.27 in 10.0 mi West 10.4 mph 18.4 mph N/A Snow Light Snow
10:55 PM 23.9 °F 12.9 °F 17.8 °F 77% 29.27 in 10.0 mi WNW 11.5 mph - N/A Snow Light Snow
11:15 PM 23.0 °F 11.7 °F 16.2 °F 75% 29.28 in 10.0 mi WNW 11.5 mph 23.0 mph N/A   Overcast
11:35 PM 22.3 °F 10.2 °F 16.3 °F 78% 29.29 in 4.0 mi NW 12.7 mph 20.7 mph N/A Snow Light Snow
11:55 PM 21.9 °F 8.2 °F 11.7 °F 65% 29.30 in 10.0 mi NW 16.1 mph 25.3 mph N/A   Overcast